Dubuque, IA

1:00 PM CDT on June 25, 2017 (GMT -0500)
Dubuque Regional

Weather History for KDBQ - February, 2013

Change the Weather History Date:

Wednesday, February 6, 2013

  Actual Average Record
Temperature  
Mean Temperature 21 °F 21 °F  
Max Temperature 36 °F 29 °F 58 °F (1904)
Min Temperature 5 °F 13 °F -18 °F (1982)
Degree Days  
Heating Degree Days 44 44  
Month to date heating degree days 306 267  
Since 1 July heating degree days 4355 4504  
Cooling Degree Days 0 0  
Month to date cooling degree days 0 0  
Year to date cooling degree days 0 0  
Moisture  
Dew Point 20 °F    
Average Humidity 86    
Maximum Humidity 100    
Minimum Humidity 72    
Precipitation  
Precipitation 0.00 in 0.05 in 0.66 in (1914)
Month to date precipitation 0.22 0.26  
Year to date precipitation 1.94 1.43  
Snow  
Snow 0.00 in 0.40 in - ()
Month to date snowfall 3.4 2.2  
Since 1 July snowfall 29.2 26.8  
Snow Depth 6.00 in    
Sea Level Pressure  
Sea Level Pressure 30.12 in    
Wind  
Wind Speed 8 mph (SSE)    
Max Wind Speed 23 mph    
Max Gust Speed 29 mph    
Visibility 6 miles    
Events      
T = Trace of Precipitation, MM = Missing Value Source: NWS Daily Summary

Daily Weather History Graph

Daily Weather History Graph

Search for Another Location

Airport or City:

Trip Planner

Search our weather history database for the weather conditions in past years. The results will help you decide how hot, cold, wet, or windy it might be!

Date:

Astronomy

Feb. 06, 2013 Rise Set
Actual Time 7:10 AM CST 5:23 PM CST
Civil Twilight 6:41 AM CST 5:53 PM CST
Nautical Twilight 6:07 AM CST 6:26 PM CST
Astronomical Twilight 5:35 AM CST 6:59 PM CST
Moon 3:56 AM CST (2/6) 1:40 PM CST (2/6)
Length of Visible Light 11h 12m
Length of Day
10h 13m
Waning Crescent, 17% of the Moon is Illuminated
Feb 6
Waning Crescent
Feb 10
New
Feb 17
First Quarter
Feb 25
Full
Mar 4
Last Quarter

Hourly Weather History & Observations

Time (CST) Temp. Windchill Dew Point Humidity Pressure Visibility Wind Dir Wind Speed Gust Speed Precip Events Conditions
12:53 AM 15.8 °F - 10.4 °F 79% 30.10 in 8.0 mi Calm Calm - N/A   Clear
1:53 AM 18.0 °F - 14.0 °F 84% 30.15 in 7.0 mi Calm Calm - N/A   Clear
2:53 AM 10.0 °F - 8.1 °F 92% 30.15 in 7.0 mi Calm Calm - N/A   Clear
3:53 AM 9.0 °F - 6.1 °F 88% 30.17 in 5.0 mi Calm Calm - N/A   Clear
4:53 AM 12.0 °F - 8.1 °F 84% 30.17 in 4.0 mi Calm Calm - N/A   Clear
5:53 AM 12.9 °F 5.2 °F 10.9 °F 92% 30.16 in 6.0 mi SE 4.6 mph - N/A   Clear
6:53 AM 5.0 °F -8.1 °F 1.9 °F 87% 30.20 in 4.0 mi SW 8.1 mph - N/A   Clear
7:53 AM 14.0 °F - 12.0 °F 92% 30.19 in 3.0 mi Calm Calm - N/A   Mostly Cloudy
8:53 AM 16.0 °F 7.4 °F 15.1 °F 96% 30.20 in 4.0 mi SSW 5.8 mph - N/A   Overcast
9:53 AM 21.9 °F 13.4 °F 18.0 °F 85% 30.17 in 6.0 mi South 6.9 mph - N/A   Scattered Clouds
10:53 AM 25.0 °F 16.3 °F 19.9 °F 81% 30.20 in 6.0 mi South 8.1 mph - N/A   Haze
11:53 AM 28.4 °F 19.7 °F 21.2 °F 74% 30.13 in 6.0 mi South 9.2 mph - N/A   Haze
12:53 PM 28.9 °F 19.8 °F 24.1 °F 82% 30.15 in 6.0 mi SSE 10.4 mph - N/A   Haze
1:53 PM 30.9 °F 21.7 °F 25.0 °F 79% 30.14 in 6.0 mi SSE 11.5 mph - N/A   Haze
2:53 PM 32.0 °F 22.5 °F 25.0 °F 75% 30.13 in 6.0 mi SE 12.7 mph - N/A   Haze
3:53 PM 33.1 °F 24.9 °F 26.1 °F 75% 30.11 in 6.0 mi SE 10.4 mph - N/A   Haze
4:53 PM 34.0 °F 25.5 °F 27.0 °F 75% 30.08 in 8.0 mi SSE 11.5 mph - N/A   Overcast
5:53 PM 34.0 °F 27.2 °F 28.9 °F 82% 30.08 in 9.0 mi SE 8.1 mph - N/A   Overcast
6:53 PM 34.0 °F 26.6 °F 30.0 °F 85% 30.09 in 8.0 mi SE 9.2 mph - N/A   Overcast
7:53 PM 35.1 °F 23.5 °F 30.0 °F 82% 30.04 in 9.0 mi SSE 21.9 mph - N/A   Clear
8:53 PM 35.1 °F 23.8 °F 30.0 °F 82% 30.03 in 9.0 mi SSE 20.7 mph - N/A   Clear
9:53 PM 34.0 °F 27.2 °F 30.0 °F 85% 30.04 in 8.0 mi South 8.1 mph - N/A   Partly Cloudy
10:53 PM 33.1 °F 24.4 °F 28.9 °F 85% 30.03 in 7.0 mi South 11.5 mph - N/A   Partly Cloudy
11:53 PM 33.1 °F 24.4 °F 28.9 °F 85% 30.03 in 7.0 mi South 11.5 mph - N/A   Partly Cloudy